Location: Parc des �les de St-Timoth�e
(45.2924°N, 74.0481°W)
Time: 02:31:45
(UTC-04:00)

ISS - All Passes

Search period start: 21 August 2017 00:00
Search period end: 31 August 2017 00:00
Orbit: 401 x 408 km, 51.6° (Epoch: 21 August)

Date Brightness Start Highest point End Pass type
(mag) Time Alt. Az. Time Alt. Az. Time Alt. Az.
21 Aug - 09:35:22 10° SSE 09:37:05 14° SE 09:38:49 10° E daylight
21 Aug - 11:09:50 10° WSW 11:13:08 88° SSE 11:16:25 10° ENE daylight
21 Aug - 12:46:57 10° WNW 12:49:53 29° N 12:52:50 10° NE daylight
21 Aug - 14:24:04 10° NW 14:27:00 28° N 14:29:53 10° ENE daylight
21 Aug - 16:00:30 10° WNW 16:03:47 84° NNE 16:07:03 10° ESE daylight
21 Aug - 17:37:53 10° W 17:39:52 15° SW 17:41:50 10° S daylight
22 Aug - 10:17:41 10° SW 10:20:52 51° SE 10:24:04 10° ENE daylight
22 Aug - 11:54:22 10° W 11:57:27 36° NNW 12:00:32 10° NE daylight
22 Aug - 13:31:40 10° NW 13:34:30 26° N 13:37:19 10° ENE daylight
22 Aug - 15:08:13 10° NW 15:11:27 53° NNE 15:14:40 10° ESE daylight
22 Aug - 16:44:58 10° W 16:47:46 26° SW 16:50:33 10° SSE daylight
23 Aug - 09:25:48 10° SSW 09:28:41 29° SE 09:31:34 10° ENE daylight
23 Aug - 11:01:49 10° W 11:05:02 50° NNW 11:08:15 10° NE daylight
23 Aug - 12:39:10 10° WNW 12:42:00 26° N 12:44:49 10° ENE daylight
23 Aug - 14:15:56 10° NW 14:19:02 38° NNE 14:22:08 10° E daylight
23 Aug - 15:52:26 10° WNW 15:55:35 46° SW 15:58:43 10° SE daylight
24 Aug - 08:34:22 10° S 08:36:33 17° SE 08:38:43 10° E daylight
24 Aug - 10:09:23 10° WSW 10:12:40 78° NNW 10:15:58 10° ENE daylight
24 Aug - 11:46:35 10° WNW 11:49:29 28° N 11:52:23 10° NE daylight
24 Aug - 13:23:37 10° NW 13:26:35 30° NNE 13:29:32 10° ENE daylight
24 Aug - 15:00:01 10° WNW 15:03:19 82° SSW 15:06:35 10° ESE daylight
24 Aug - 16:37:52 10° WSW 16:39:19 12° SW 16:40:45 10° SSW daylight
25 Aug - 09:17:06 10° SW 09:20:21 62° SE 09:23:36 10° ENE daylight
25 Aug - 10:53:57 10° W 10:56:59 33° NNW 11:00:02 10° NE daylight
25 Aug - 12:31:12 10° NW 12:34:04 26° N 12:36:55 10° ENE daylight
25 Aug - 14:07:42 10° WNW 14:10:58 62° NNE 14:14:12 10° ESE daylight
25 Aug - 15:44:36 10° W 15:47:12 22° SW 15:49:46 10° S daylight
26 Aug - 08:25:04 10° SSW 08:28:05 35° SE 08:31:08 10° ENE daylight
26 Aug - 10:01:21 10° W 10:04:31 44° NNW 10:07:42 10° NE daylight
26 Aug - 11:38:42 10° WNW 11:41:31 26° N 11:44:21 10° ENE daylight
26 Aug - 13:15:23 10° NW 13:18:32 42° NNE 13:21:40 10° E daylight
26 Aug - 14:51:56 10° WNW 14:55:00 38° SW 14:58:03 10° SSE daylight
27 Aug - 07:33:24 10° S 07:35:54 20° SE 07:38:23 10° E daylight
27 Aug - 09:08:49 10° WSW 09:12:06 67° NNW 09:15:23 10° ENE daylight
27 Aug - 10:46:05 10° WNW 10:48:58 27° N 10:51:51 10° NE daylight
27 Aug - 12:23:02 10° NW 12:26:03 32° NNE 12:29:03 10° E daylight
27 Aug - 13:59:27 10° WNW 14:02:43 68° SSW 14:05:57 10° SE daylight
28 Aug - 06:42:39 10° SSE 06:43:46 11° SE 06:44:52 10° ESE daylight
28 Aug - 08:16:27 10° SW 08:19:43 75° SSE 08:23:00 10° ENE daylight
28 Aug - 09:53:26 10° WNW 09:56:25 31° NNW 09:59:25 10° NE daylight
28 Aug - 11:30:37 10° NW 11:33:30 27° N 11:36:23 10° ENE daylight
28 Aug - 13:07:04 10° WNW 13:10:21 72° NNE 13:13:37 10° ESE daylight
28 Aug - 14:44:11 10° W 14:46:30 18° SW 14:48:49 10° S daylight
29 Aug - 07:24:16 10° SW 07:27:23 42° SE 07:30:32 10° ENE daylight
29 Aug - 09:00:46 10° W 09:03:54 40° NNW 09:07:02 10° NE daylight
29 Aug - 10:38:06 10° WNW 10:40:55 26° N 10:43:45 10° ENE daylight
29 Aug - 12:14:42 10° NW 12:17:55 47° NNE 12:21:06 10° E daylight
29 Aug - 13:51:20 10° WNW 13:54:18 31° SW 13:57:14 10° SSE daylight
30 Aug - 06:32:25 10° SSW 06:35:08 24° SE 06:37:52 10° E daylight
30 Aug - 08:08:10 10° WSW 08:11:25 57° NNW 08:14:41 10° NE daylight
30 Aug - 09:45:29 10° WNW 09:48:20 26° N 09:51:12 10° NE daylight
30 Aug - 11:22:20 10° NW 11:25:23 35° NNE 11:28:27 10° E daylight
30 Aug - 12:58:46 10° WNW 13:02:00 56° SW 13:05:12 10° SE daylight
